STARLINK-1009

Last updated on Thu Dec 12 2019 00:02:03 GMT+0000 (Coordinated Universal Time)

1 44715U 19074C 19345.58335648 .00060678 00000-0 43394-3 0 9999 2 44715 53.0090 21.5015 0001941 17.1570 40.5363 15.73177514 4736

Satellite not in orbit

STARLINK-1009